weather.gov     
National Weather Service

Regional Weather Roundup
NWS Homepage
This page is being discontinued on March 12, 2014.
The same data is available at this site. Please update your bookmarks.
Thank you, and we apologize for the inconvenience.
Please send an email to SR-SRH.Webmaster@noaa.gov with any concerns.


Current Version
Previous Version:    01  02  03  04  05  06  07  08  09  10  11  12  13  14  15  16  17  18  19  20  21  22  23  24  25  26  27  
[Printable]
088
ASUS46 KSEW 220810
RWRWA

WASHINGTON REGIONAL WEATHER ROUNDUP
NATIONAL WEATHER SERVICE SEATTLE WA
100 AM PDT WED OCT 22 2014

NOTE:"FAIR" INDICATES FEW OR NO CLOUDS BELOW 12,000 FEET WITH NO
SIGNIFICANT WEATHER AND/OR OBSTRUCTIONS TO VISIBILITY.

WAZ505-507>509-220900-
SEATTLE, TACOMA, EVERETT, AND VICINITY

CITY           SKY/WX    TMP DP  RH WIND       PRES   REMARKS
EVERETT        LGT RAIN  55  47  74 VRB7      29.70F
BOEING FIELD   CLOUDY    58  48  69 SE9       29.71F
RENTON         CLOUDY    56  49  77 VRB5      29.70F
SEATAC AIRPORT CLOUDY    57  46  66 SE12      29.72F
JBLM-MCCHORD   CLOUDY    59  47  66 S18G29    29.72F
PUYALLUP       NOT AVBL
JBLM-FT LEWIS  DRIZZLE   58  48  68 SE13      29.72F
TACOMA NARROWS LGT RAIN  58  46  64 S15G23    29.72F
$$

WAZ001-503-506-510-514-515-220900-
NORTH INTERIOR

CITY           SKY/WX    TMP DP  RH WIND       PRES   REMARKS
BELLINGHAM     CLOUDY    61  44  53 SE23G41   29.60F
FRIDAY HARBOR  CLOUDY    57  48  72 SE31G41   29.57F
EASTSOUND      LGT RAIN  59  48  67 S12G25    29.54F
PORT ANGELES   LGT RAIN  53  51  93 CALM      29.53F
NAS WHIDBEY    CLOUDY    60  48  64 SE28G44   29.64F
BURLINGTON     NOT AVBL
$$

WAZ020-022-039-040-504-511-512-220900-
SOUTHWEST INTERIOR

CITY           SKY/WX    TMP DP  RH WIND       PRES   REMARKS
SHELTON        LGT RAIN  57  47  69 SE18G36   29.68F
OLYMPIA        CLOUDY    56  48  74 S20G32    29.71F
CHEHALIS       NOT AVBL
KELSO          CLOUDY    57  46  67 SE16G31   29.80F
VANCOUVER      CLOUDY    55  51  86 SE13      29.83F
SCAPPOOSE, OR  CLOUDY    54  52  93 SE3       29.82F
PORTLAND, OR   CLOUDY    54  52  93 E14       29.83F
$$

WAZ021-516-517-220900-
WASHINGTON COAST

CITY           SKY/WX    TMP DP  RH WIND       PRES   REMARKS
FORKS          HVY RAIN  55  54  96 S10G29    29.53R FOG
HOQUIAM        LGT RAIN  56  54  93 SE17      29.65F FOG
ASTORIA, OR    LGT RAIN  58  53  84 S12G26    29.69F
$$

WAZ019-023-024-040-518-519-220900-
CASCADE MOUNTAINS AND COLUMBIA GORGE

CITY           SKY/WX    TMP DP  RH WIND       PRES   REMARKS
STAMPEDE PASS  NOT AVBL
TROUTDALE, OR  LGT RAIN  55  51  86 E3        29.84F FOG
THE DALLES, OR CLOUDY    50  47  89 CALM      29.90F
$$

WAZ026-027-041>044-520-521-220900-
EAST SLOPES

CITY           SKY/WX    TMP DP  RH WIND       PRES   REMARKS
OMAK           PTCLDY    52  41  66 S10       29.88F
WENATCHEE      CLOUDY    52  41  66 SE15      29.86F
ELLENSBURG     MOCLDY    48  41  76 E9        29.88F
YAKIMA         MOCLDY    44  40  85 CALM      29.89F
$$

WAZ028-034-035-220900-
COLUMBIA BASIN

CITY           SKY/WX    TMP DP  RH WIND       PRES   REMARKS
EPHRATA        PTCLDY    44  41  89 N3        29.89F
MOSES LAKE     PTCLDY    47  42  83 SE8       29.90F
PASCO          MOCLDY    46  44  93 CALM      29.91F
HERMISTON, OR  MOCLDY    42  39  89 SE6       29.90F
$$

WAZ036>038-220900-
NORTHEAST WASHINGTON

CITY           SKY/WX    TMP DP  RH WIND       PRES   REMARKS
SPOKANE GEIGER CLEAR     43  37  79 SE9       29.97S
SPOKANE FELTS  CLEAR     45  39  79 N6        29.98S
FAIRCHILD AFB  CLEAR     41  37  86 SE6       29.97S
COEURDALENE,ID CLEAR     45  39  81 S5        29.98S
DEER PARK      CLOUDY    40  38  93 CALM      29.98S
$$

WAZ029>033-220900-
SOUTHEAST WASHINGTON

CITY           SKY/WX    TMP DP  RH WIND       PRES   REMARKS
PULLMAN        CLEAR     43  37  79 E13       30.01S
LEWISTON, ID   CLEAR     44  38  79 S5        30.00S
WALLA WALLA    PTCLDY    52  37  56 CALM      29.93F
PENDLETON, OR  PTCLDY    50  37  61 S5        29.93F
$$




U.S. Dept. of Commerce
NOAA National Weather Service
1325 East West Highway
Silver Spring, MD 20910
E-mail: w-nws.webmaster@noaa.gov
Page last modified: May 16, 2007
NATIONAL WEATHER SERVICE: for Safety, for Work, for Fun - FOR LIFE